Hourly Weather Holod'ky

Today, 12 April, Monday

Time Temperature Precipitation Wind Pressure Humidity
00:00 +7°C° 0 mm 2 mps 747 mmHg 56%
01:00 +7°C° 0 mm 1 mps 747 mmHg 56%
02:00 +7°C° 0 mm 1 mps 747 mmHg 56%
03:00 +7°C° 0 mm 1 mps 747 mmHg 57%
04:00 +6°C° 0 mm 1 mps 746 mmHg 59%
05:00 +5°C° 0 mm 2 mps 746 mmHg 61%
06:00 +6°C° 0 mm 2 mps 746 mmHg 60%
07:00 +7°C° 0 mm 2 mps 746 mmHg 59%
08:00 +9°C° 0 mm 3 mps 746 mmHg 58%
09:00 +10°C° 0 mm 3 mps 745 mmHg 54%
10:00 +12°C° 0 mm 3 mps 745 mmHg 49%
11:00 +13°C° 0 mm 3 mps 745 mmHg 44%
12:00 +13°C° 0 mm 3 mps 744 mmHg 44%
13:00 +14°C° 0 mm 3 mps 744 mmHg 44%
14:00 +14°C° 0 mm 3 mps 744 mmHg 44%
15:00 +13°C° 0 mm 3 mps 744 mmHg 52%
16:00 +12°C° 0 mm 3 mps 744 mmHg 59%
17:00 +11°C° 0 mm 3 mps 744 mmHg 66%
18:00 +10°C° 0 mm 3 mps 744 mmHg 72%
19:00 +9°C° 0 mm 2 mps 744 mmHg 78%
20:00 +8°C° 0 mm 2 mps 744 mmHg 84%
21:00 +9°C° 0 mm 1 mps 744 mmHg 85%
22:00 +9°C° 0 mm 1 mps 744 mmHg 85%
23:00 +8°C° 0 mm 0 mps 743 mmHg 86%

Tomorrow, 13 April, Tuesday

Time Temperature Precipitation Wind Pressure Humidity
00:00 +8°C° 0 mm 0 mps 743 mmHg 86%
01:00 +8°C° 0 mm 0 mps 743 mmHg 86%
02:00 +8°C° 0 mm 0 mps 743 mmHg 86%
03:00 +8°C° 0 mm 0 mps 743 mmHg 86%
04:00 +9°C° 0 mm 1 mps 743 mmHg 86%
05:00 +9°C° 0 mm 1 mps 743 mmHg 86%
06:00 +9°C° 0 mm 1 mps 743 mmHg 85%
07:00 +9°C° 0 mm 1 mps 743 mmHg 85%
08:00 +10°C° 0 mm 1 mps 743 mmHg 85%
09:00 +10°C° 0 mm 1 mps 743 mmHg 85%
10:00 +10°C° 0 mm 1 mps 743 mmHg 85%
11:00 +9°C° 0 mm 2 mps 743 mmHg 85%
12:00 +9°C° 0.1 mm 2 mps 742 mmHg 86%
13:00 +9°C° 0.1 mm 2 mps 742 mmHg 87%
14:00 +9°C° 0.1 mm 2 mps 742 mmHg 88%
15:00 +9°C° 0.1 mm 2 mps 742 mmHg 89%
16:00 +8°C° 0.1 mm 2 mps 742 mmHg 90%
17:00 +8°C° 0.1 mm 2 mps 742 mmHg 91%
18:00 +8°C° 0 mm 2 mps 742 mmHg 92%
19:00 +8°C° 0 mm 2 mps 741 mmHg 93%
20:00 +8°C° 0 mm 2 mps 741 mmHg 94%
21:00 +7°C° 0 mm 3 mps 741 mmHg 94%
22:00 +7°C° 0 mm 3 mps 741 mmHg 95%
23:00 +7°C° 0 mm 3 mps 741 mmHg 95%

Day after tomorrow, 14 April, Wednesday

Time Temperature Precipitation Wind Pressure Humidity
00:00 +7°C° 0.1 mm 3 mps 740 mmHg 94%
01:00 +6°C° 0.1 mm 4 mps 740 mmHg 94%
02:00 +6°C° 0.1 mm 4 mps 740 mmHg 93%
03:00 +6°C° 0.3 mm 4 mps 740 mmHg 92%
04:00 +6°C° 0.3 mm 4 mps 740 mmHg 92%
05:00 +6°C° 0.3 mm 4 mps 740 mmHg 91%
06:00 +6°C° 0.2 mm 4 mps 740 mmHg 89%
07:00 +7°C° 0.2 mm 3 mps 740 mmHg 87%
08:00 +7°C° 0.2 mm 3 mps 740 mmHg 85%
09:00 +9°C° 0 mm 3 mps 740 mmHg 78%
10:00 +10°C° 0 mm 4 mps 740 mmHg 70%
11:00 +12°C° 0 mm 4 mps 740 mmHg 63%
12:00 +12°C° 0 mm 4 mps 740 mmHg 62%
13:00 +12°C° 0 mm 4 mps 739 mmHg 61%
14:00 +13°C° 0 mm 4 mps 739 mmHg 59%
15:00 +12°C° 0 mm 3 mps 739 mmHg 63%
16:00 +12°C° 0 mm 3 mps 739 mmHg 67%
17:00 +11°C° 0 mm 3 mps 739 mmHg 71%
18:00 +12°C° 0 mm 2 mps 739 mmHg 74%
19:00 +10°C° 0 mm 2 mps 739 mmHg 77%
20:00 +9°C° 0 mm 2 mps 739 mmHg 80%
21:00 +10°C° 0 mm 1 mps 739 mmHg 81%
22:00 +10°C° 0 mm 1 mps 739 mmHg 82%
23:00 +9°C° 0 mm 1 mps 739 mmHg 83%

15 April, Thursday

Time Temperature Precipitation Wind Pressure Humidity
00:00 +9°C° 0 mm 1 mps 738 mmHg 84%
01:00 +9°C° 0 mm 1 mps 738 mmHg 85%
02:00 +9°C° 0 mm 1 mps 738 mmHg 86%
03:00 +8°C° 0.1 mm 1 mps 738 mmHg 86%
04:00 +8°C° 0.1 mm 1 mps 738 mmHg 87%
05:00 +8°C° 0.1 mm 1 mps 738 mmHg 88%
06:00 +8°C° 0.3 mm 2 mps 738 mmHg 88%
07:00 +8°C° 0.3 mm 2 mps 738 mmHg 87%
08:00 +8°C° 0.3 mm 2 mps 738 mmHg 87%
09:00 +9°C° 0.1 mm 2 mps 738 mmHg 80%
10:00 +10°C° 0.1 mm 3 mps 738 mmHg 74%
11:00 +11°C° 0.1 mm 3 mps 738 mmHg 68%
12:00 +11°C° 0.1 mm 3 mps 738 mmHg 69%
13:00 +11°C° 0.1 mm 3 mps 738 mmHg 70%
14:00 +11°C° 0.1 mm 3 mps 737 mmHg 70%
15:00 +10°C° 0.1 mm 3 mps 737 mmHg 74%
16:00 +10°C° 0.1 mm 2 mps 737 mmHg 79%
17:00 +9°C° 0.1 mm 2 mps 737 mmHg 83%
18:00 +10°C° 0 mm 1 mps 737 mmHg 84%
19:00 +9°C° 0 mm 1 mps 737 mmHg 86%
20:00 +8°C° 0 mm 0 mps 737 mmHg 87%
21:00 +8°C° 0 mm 0 mps 737 mmHg 88%
22:00 +8°C° 0 mm 0 mps 737 mmHg 89%
23:00 +7°C° 0 mm 0 mps 737 mmHg 89%

16 April, Friday

Time Temperature Precipitation Wind Pressure Humidity
00:00 +7°C° 0.1 mm 0 mps 737 mmHg 90%
01:00 +8°C° 0.1 mm 1 mps 736 mmHg 91%
02:00 +8°C° 0.1 mm 1 mps 736 mmHg 92%
03:00 +8°C° 0.4 mm 1 mps 736 mmHg 93%
04:00 +8°C° 0.4 mm 1 mps 736 mmHg 94%
05:00 +8°C° 0.4 mm 1 mps 736 mmHg 95%
06:00 +7°C° 0.7 mm 2 mps 736 mmHg 95%
07:00 +7°C° 0.7 mm 2 mps 735 mmHg 95%
08:00 +7°C° 0.7 mm 2 mps 735 mmHg 96%
09:00 +8°C° 0.7 mm 2 mps 735 mmHg 94%
10:00 +8°C° 0.7 mm 3 mps 735 mmHg 93%
11:00 +8°C° 0.7 mm 3 mps 735 mmHg 92%
12:00 +9°C° 0.3 mm 3 mps 735 mmHg 89%
13:00 +9°C° 0.3 mm 2 mps 735 mmHg 87%
14:00 +9°C° 0.3 mm 2 mps 735 mmHg 84%
15:00 +9°C° 0.3 mm 2 mps 735 mmHg 87%
16:00 +8°C° 0.3 mm 3 mps 735 mmHg 90%
17:00 +6°C° 0.3 mm 4 mps 735 mmHg 92%
18:00 +6°C° 0.3 mm 4 mps 736 mmHg 92%
19:00 +5°C° 0.3 mm 3 mps 736 mmHg 92%
20:00 +5°C° 0.3 mm 3 mps 736 mmHg 92%
21:00 +5°C° 0 mm 3 mps 737 mmHg 92%
22:00 +5°C° 0 mm 3 mps 737 mmHg 93%
23:00 +4°C° 0 mm 3 mps 737 mmHg 93%

17 April, Saturday

Time Temperature Precipitation Wind Pressure Humidity
00:00 +4°C° 0 mm 3 mps 738 mmHg 93%
01:00 +4°C° 0 mm 3 mps 738 mmHg 93%
02:00 +4°C° 0 mm 3 mps 738 mmHg 93%
03:00 +4°C° 0 mm 3 mps 739 mmHg 93%
04:00 +4°C° 0 mm 3 mps 739 mmHg 93%
05:00 +4°C° 0 mm 3 mps 739 mmHg 93%
06:00 +4°C° 0 mm 3 mps 740 mmHg 92%
07:00 +4°C° 0 mm 3 mps 740 mmHg 90%
08:00 +4°C° 0 mm 3 mps 741 mmHg 89%
09:00 +5°C° 0 mm 4 mps 741 mmHg 86%
10:00 +5°C° 0 mm 4 mps 742 mmHg 83%
11:00 +6°C° 0 mm 4 mps 742 mmHg 80%
12:00 +6°C° 0 mm 4 mps 743 mmHg 78%
13:00 +7°C° 0 mm 4 mps 743 mmHg 76%
14:00 +7°C° 0 mm 4 mps 743 mmHg 75%
15:00 +7°C° 0 mm 4 mps 743 mmHg 75%
16:00 +8°C° 0 mm 3 mps 744 mmHg 76%
17:00 +8°C° 0 mm 3 mps 744 mmHg 77%
18:00 +7°C° 0 mm 3 mps 744 mmHg 79%
19:00 +7°C° 0 mm 2 mps 745 mmHg 80%
20:00 +6°C° 0 mm 2 mps 745 mmHg 82%
21:00 +6°C° 0 mm 2 mps 745 mmHg 84%
22:00 +6°C° 0 mm 1 mps 745 mmHg 86%
23:00 +5°C° 0 mm 1 mps 745 mmHg 87%
Show more